FW1511 Weather Reports


Display with metric or nautical units.
time (UTC)temp
F
wind
direction
speed
MPH
gust
MPH
rain 1hr
in
rain 24hr
in
rain mn
in
humidity
%
barometer
mb
20260508085035 48 0 0.0 3.0 0.00 0.00 0.00 88 1016.0
20260508084616 47 113 0.0 3.0 0.00 0.00 0.00 89 1016.5
20260508084135 48 0 0.0 3.0 0.00 0.00 0.00 88 1015.9
20260508083235 48 0 0.0 3.0 0.00 0.00 0.00 88 1015.9
20260508083003 48 124 0.0 0.0 0.00 0.00 0.00 88 1016.5
20260508082335 48 0 0.0 0.0 0.00 0.00 0.00 88 1015.9
20260508081603 47 126 0.0 0.0 0.00 0.00 0.00 88 1016.5
20260508081435 48 0 0.0 0.0 0.00 0.00 0.00 88 1015.8
20260508080535 48 0 0.0 0.0 0.00 0.00 0.00 88 1015.8
20260508080006 48 134 0.0 0.0 0.00 0.00 0.00 88 1016.3
20260508074735 48 0 0.0 0.0 0.00 0.00 0.00 87 1015.8
20260508073030 48 133 0.0 1.0 0.00 0.00 0.00 86 1016.3
20260508072935 49 0 0.0 1.0 0.00 0.00 0.00 86 1015.7
20260508072035 49 0 0.0 0.0 0.00 0.00 0.00 85 1015.7
20260508071503 49 133 0.0 1.0 0.00 0.00 0.00 85 1016.2
20260508065335 50 0 0.0 0.0 0.00 0.00 0.00 84 1015.8
20260508064513 50 165 0.0 2.0 0.00 0.00 0.00 84 1016.4
20260508064435 50 0 0.0 2.0 0.00 0.00 0.00 84 1015.8
20260508063102 50 180 0.0 3.0 0.00 0.00 0.00 83 1016.4
20260508062635 51 0 0.0 4.0 0.00 0.00 0.00 83 1015.8
20260508061735 51 0 0.0 1.0 0.00 0.00 0.00 83 1015.8
20260508061503 50 124 0.0 1.0 0.00 0.00 0.00 83 1016.5
20260508055035 52 0 0.0 0.0 0.00 0.00 0.00 81 1016.1
20260508054501 52 211 0.0 2.0 0.00 0.00 0.00 80 1016.6
20260508054135 52 0 0.0 3.0 0.00 0.00 0.00 80 1016.1
20260508053235 52 0 0.0 1.0 0.00 0.00 0.00 80 1016.0
20260508053106 52 124 0.0 0.0 0.00 0.00 0.00 79 1016.5
20260508052335 53 0 0.0 4.0 0.00 0.00 0.00 79 1016.0
20260508051500 53 239 0.0 4.0 0.00 0.00 0.00 79 1016.6
20260508051435 53 138 0.0 4.0 0.00 0.00 0.00 79 1016.0
20260508050535 53 192 0.0 4.0 0.00 0.00 0.00 78 1016.0
20260508050118 53 162 0.0 2.0 0.00 0.00 0.00 78 1016.5
20260508044735 54 160 1.0 4.0 0.00 0.00 0.00 77 1015.9
20260508043108 54 187 0.0 3.0 0.00 0.00 0.00 76 1016.3
20260508042935 55 241 1.0 3.0 0.00 0.00 0.00 76 1015.8
20260508041504 55 358 1.0 3.0 0.00 0.00 0.00 75 1016.3
20260508041135 56 250 0.0 3.0 0.00 0.00 0.00 75 1015.8
20260508040235 56 250 0.0 4.0 0.00 0.00 0.00 74 1015.8
20260508040114 56 105 0.0 4.0 0.00 0.00 0.00 74 1016.4
20260508035335 57 215 0.0 6.0 0.00 0.00 0.00 74 1015.8
20260508034502 56 285 0.0 1.0 0.00 0.00 0.00 73 1016.2
20260508033535 58 0 0.0 4.0 0.00 0.00 0.00 72 1015.5
20260508033101 58 238 0.0 3.0 0.00 0.00 0.00 72 1016.0
20260508032635 58 208 0.0 4.0 0.00 0.00 0.00 72 1015.4
20260508031735 59 173 0.0 4.0 0.00 0.00 0.00 71 1015.4
20260508031506 59 134 0.0 2.0 0.00 0.00 0.00 71 1015.9
20260508030835 60 199 1.0 8.0 0.00 0.00 0.00 70 1015.4
20260508025935 60 214 1.0 4.0 0.00 0.00 0.00 68 1015.3
20260508024503 61 239 1.0 5.0 0.00 0.00 0.00 66 1015.8
20260508024135 62 193 1.0 3.0 0.00 0.00 0.00 66 1015.2
20260508023235 63 250 1.0 4.0 0.00 0.00 0.00 64 1015.2
20260508023101 63 112 1.0 4.0 0.00 0.00 0.00 64 1015.8
20260508022335 64 233 1.0 5.0 0.00 0.00 0.00 63 1015.3
20260508021502 64 196 1.0 5.0 0.00 0.00 0.00 62 1015.7
20260508021436 65 188 2.0 4.0 0.00 0.00 0.00 62 1015.2
20260508020535 65 217 2.0 6.0 0.00 0.00 0.00 62 1015.3
20260508015635 66 231 2.0 5.0 0.00 0.00 0.00 59 1015.3
20260508014502 69 356 1.0 6.0 0.00 0.00 0.00 55 1015.8
20260508013835 72 0 0.0 4.0 0.00 0.00 0.00 49 1015.3
20260508013103 72 153 0.0 1.0 0.00 0.00 0.00 47 1015.8
20260508012935 73 0 0.0 2.0 0.00 0.00 0.00 47 1015.2
20260508012035 71 297 1.0 2.0 0.00 0.00 0.00 50 1015.4
20260508011502 69 240 0.0 5.0 0.00 0.00 0.00 50 1016.0
20260508011135 69 315 1.0 5.0 0.00 0.00 0.00 52 1015.4
20260508010236 70 246 1.0 1.0 0.00 0.00 0.00 51 1015.6
20260508010100 69 210 0.0 1.0 0.00 0.00 0.00 54 1016.0
20260508005335 69 325 1.0 4.0 0.00 0.00 0.00 52 1015.7
20260508004500 70 31 0.0 3.0 0.00 0.00 0.00 49 1016.2
20260508004435 70 254 1.0 3.0 0.00 0.00 0.00 50 1015.7
20260508003536 70 286 1.0 5.0 0.00 0.00 0.00 50 1015.8
20260508003101 70 264 0.0 5.0 0.00 0.00 0.00 49 1016.2
20260508001501 70 307 0.0 4.0 0.00 0.00 0.00 48 1016.5
20260508000835 70 322 1.0 5.0 0.00 0.00 0.00 51 1016.0
20260508000103 70 230 1.0 5.0 0.00 0.00 0.00 47 1016.6
20260507234502 70 293 0.0 3.0 0.00 0.00 0.00 49 1016.6
20260507234136 70 154 2.0 3.0 0.00 0.00 0.00 52 1016.1
20260507233235 68 231 1.0 5.0 0.00 0.00 0.00 53 1016.5
20260507233117 68 252 1.0 5.0 0.00 0.00 0.00 51 1017.0
20260507232336 69 228 1.0 3.0 0.00 0.00 0.00 51 1016.5
20260507231503 67 90 0.0 6.0 0.00 0.00 0.00 54 1017.2
20260507231436 67 284 1.0 6.0 0.00 0.00 0.00 54 1016.7
20260507230536 68 247 2.0 3.0 0.00 0.00 0.00 51 1016.7
20260507230101 67 302 1.0 6.0 0.00 0.00 0.00 51 1017.3
20260507225635 68 283 1.0 6.0 0.00 0.00 0.00 53 1016.8
20260507224501 67 238 0.0 5.0 0.00 0.00 0.00 54 1017.4
20260507223835 68 263 2.0 5.0 0.00 0.00 0.00 53 1017.0
20260507223116 67 264 1.0 5.0 0.00 0.00 0.00 52 1017.6
20260507222936 68 194 1.0 5.0 0.00 0.00 0.00 52 1017.0
20260507222036 68 140 2.0 4.0 0.00 0.00 0.00 52 1017.1
20260507220236 69 153 2.0 3.0 0.00 0.00 0.00 56 1017.4
20260507215337 67 143 1.0 7.0 0.00 0.00 0.00 57 1017.4
20260507214502 67 183 1.0 5.0 0.00 0.00 0.00 57 1018.1
20260507214436 68 173 2.0 5.0 0.00 0.00 0.00 55 1017.5
20260507213535 66 147 2.0 6.0 0.00 0.00 0.00 61 1017.6
20260507213104 66 125 1.0 6.0 0.00 0.00 0.00 58 1018.2
20260507212636 66 183 2.0 7.0 0.00 0.00 0.00 57 1017.7
20260507211736 67 194 1.0 4.0 0.00 0.00 0.00 56 1017.8
20260507211502 66 215 0.0 4.0 0.00 0.00 0.00 59 1018.4
20260507210836 66 223 1.0 4.0 0.00 0.00 0.00 57 1017.9
20260507210115 65 242 1.0 4.0 0.00 0.00 0.00 57 1018.7
20260507205936 65 322 1.0 4.0 0.00 0.00 0.00 57 1018.0
20260507205036 65 297 2.0 6.0 0.00 0.00 0.00 59 1018.1
20260507204501 64 340 1.0 6.0 0.00 0.00 0.00 59 1018.8
20260507204136 66 175 1.0 5.0 0.00 0.00 0.00 56 1018.2
20260507203236 65 124 1.0 6.0 0.00 0.00 0.00 59 1018.2
20260507203101 65 152 1.0 6.0 0.00 0.00 0.00 58 1018.9
20260507202336 64 103 2.0 5.0 0.00 0.00 0.00 59 1018.4
20260507201505 63 188 1.0 6.0 0.00 0.00 0.00 62 1018.9
20260507201436 63 126 1.0 6.0 0.00 0.00 0.00 62 1018.4
20260507200536 62 318 1.0 6.0 0.00 0.00 0.00 61 1018.3
20260507200106 62 238 1.0 4.0 0.00 0.00 0.00 61 1018.9
20260507195636 62 169 1.0 4.0 0.00 0.00 0.00 62 1018.6
20260507194736 61 170 2.0 3.0 0.00 0.00 0.00 66 1018.5
20260507194502 61 214 0.0 3.0 0.00 0.00 0.00 67 1019.2
20260507193836 60 139 2.0 8.0 0.00 0.00 0.00 64 1018.7
20260507193101 60 155 0.0 8.0 0.00 0.00 0.00 68 1019.2
20260507192036 60 108 1.0 5.0 0.00 0.00 0.00 65 1018.9
20260507191502 59 99 0.0 4.0 0.00 0.00 0.00 69 1019.6
20260507191136 59 80 1.0 4.0 0.00 0.00 0.00 66 1019.0
20260507190236 58 142 1.0 6.0 0.00 0.00 0.00 68 1019.1
20260507190115 58 239 0.0 6.0 0.00 0.00 0.00 69 1019.5
20260507184501 58 237 0.0 5.0 0.00 0.00 0.00 69 1019.7
20260507184436 58 155 1.0 5.0 0.00 0.00 0.00 69 1019.2
20260507183536 58 139 2.0 5.0 0.00 0.00 0.00 70 1019.2
20260507183117 57 163 2.0 5.0 0.00 0.00 0.00 72 1019.8
20260507182636 57 147 1.0 5.0 0.00 0.00 0.00 69 1019.3
20260507181736 57 220 1.0 3.0 0.00 0.00 0.00 69 1019.3
20260507181502 57 243 0.0 3.0 0.00 0.00 0.00 70 1019.9
20260507180836 57 142 1.0 4.0 0.00 0.00 0.00 69 1019.3
20260507180106 57 198 0.0 5.0 0.00 0.00 0.00 70 1019.9
20260507175936 57 142 1.0 5.0 0.00 0.00 0.00 71 1019.4
20260507175037 57 66 1.0 3.0 0.00 0.00 0.00 73 1019.4
20260507174503 56 109 0.0 4.0 0.00 0.00 0.00 71 1020.0
20260507173236 56 168 1.0 4.0 0.00 0.00 0.00 72 1019.5
20260507173120 56 145 1.0 4.0 0.00 0.00 0.00 72 1020.1
20260507172336 56 165 1.0 3.0 0.00 0.00 0.00 73 1019.6
20260507171603 55 114 0.0 5.0 0.00 0.00 0.00 74 1020.1
20260507171436 55 142 2.0 5.0 0.00 0.00 0.00 74 1019.6
20260507170536 55 138 0.0 5.0 0.00 0.00 0.00 72 1019.7
20260507170001 55 265 0.0 2.0 0.00 0.00 0.00 74 1020.3
20260507165636 54 150 1.0 2.0 0.00 0.00 0.00 74 1019.8
20260507164736 54 158 1.0 3.0 0.00 0.00 0.00 74 1019.8
20260507164638 54 165 1.0 3.0 0.00 0.00 0.00 73 1020.4
20260507163836 54 137 2.0 5.0 0.00 0.00 0.00 75 1019.7
20260507163002 53 119 3.0 7.0 0.00 0.00 0.00 73 1020.3
20260507162936 54 144 1.0 7.0 0.00 0.00 0.00 74 1019.7
20260507162036 53 182 1.0 5.0 0.00 0.00 0.00 74 1019.7
20260507161605 53 236 1.0 5.0 0.00 0.00 0.00 77 1020.4
20260507161136 53 154 1.0 4.0 0.00 0.00 0.00 76 1019.8
20260507160236 52 279 1.0 4.0 0.00 0.00 0.00 76 1020.0
20260507160002 52 250 1.0 5.0 0.00 0.00 0.00 76 1020.5
20260507155336 52 190 1.0 4.0 0.00 0.00 0.00 76 1019.9
20260507154604 51 165 1.0 4.0 0.00 0.00 0.00 78 1020.5
20260507154436 52 188 0.0 4.0 0.00 0.00 0.00 77 1020.0
20260507153536 52 200 0.0 3.0 0.00 0.00 0.00 77 1019.9
20260507153002 51 170 1.0 3.0 0.00 0.00 0.00 77 1020.5
20260507152636 52 167 1.0 3.0 0.00 0.00 0.00 78 1019.9
20260507151736 51 0 0.0 2.0 0.00 0.00 0.00 79 1020.0
20260507151604 51 229 0.0 2.0 0.00 0.00 0.00 78 1020.6
20260507150836 51 153 0.0 4.0 0.00 0.00 0.00 79 1020.0
20260507150002 50 117 0.0 4.0 0.00 0.00 0.00 79 1020.6
20260507145937 51 231 1.0 4.0 0.00 0.00 0.00 80 1020.0
20260507144603 50 231 1.0 4.0 0.00 0.00 0.00 79 1020.5
20260507143236 50 211 1.0 5.0 0.00 0.00 0.00 80 1019.9
20260507143001 50 243 0.0 5.0 0.00 0.00 0.00 80 1020.4
20260507142336 50 197 0.0 4.0 0.00 0.00 0.00 80 1019.8
20260507141609 50 186 0.0 3.0 0.00 0.00 0.00 82 1020.5
20260507141436 50 0 0.0 1.0 0.00 0.00 0.00 82 1019.9
20260507140536 50 0 0.0 1.0 0.00 0.00 0.00 82 1019.8
20260507140001 49 143 0.0 0.0 0.00 0.00 0.00 83 1020.2
20260507135636 50 0 0.0 0.0 0.00 0.00 0.00 83 1019.8
20260507134602 49 126 0.0 0.0 0.00 0.00 0.00 82 1020.2
20260507133002 49 121 0.0 0.0 0.00 0.00 0.00 82 1020.2
20260507132937 49 0 0.0 0.0 0.00 0.00 0.00 82 1019.6
20260507132036 49 0 0.0 0.0 0.00 0.00 0.00 82 1019.6
20260507131607 49 201 0.0 0.0 0.00 0.00 0.00 82 1020.3
20260507131136 49 0 0.0 0.0 0.00 0.00 0.00 83 1019.7
20260507130237 49 0 0.0 0.0 0.00 0.00 0.00 82 1019.7
20260507125336 49 0 0.0 0.0 0.00 0.00 0.00 82 1019.7
20260507124606 49 117 0.0 0.0 0.00 0.00 0.00 82 1020.0
20260507123536 49 0 0.0 3.0 0.00 0.00 0.00 83 1019.7
20260507123002 49 169 1.0 3.0 0.00 0.00 0.00 82 1020.2
20260507122636 50 0 0.0 1.0 0.00 0.00 0.00 82 1019.6
20260507121736 50 0 0.0 4.0 0.00 0.00 0.00 82 1019.6
20260507121603 49 159 0.0 4.0 0.00 0.00 0.00 82 1020.2
20260507120837 50 159 1.0 2.0 0.00 0.00 0.00 83 1019.6
20260507120006 49 183 0.0 3.0 0.00 0.00 0.00 83 1020.4
20260507115938 50 127 1.0 3.0 0.00 0.00 0.00 83 1019.9
20260507115036 50 0 0.0 2.0 0.00 0.00 0.00 84 1019.9
20260507113007 50 166 0.0 3.0 0.00 0.00 0.00 82 1020.4
20260507112336 50 0 0.0 3.0 0.00 0.00 0.00 82 1019.9
20260507111603 50 200 0.0 2.0 0.00 0.00 0.00 81 1020.7
20260507111436 50 151 1.0 2.0 0.00 0.00 0.00 81 1020.0
20260507110536 50 175 1.0 6.0 0.00 0.00 0.00 81 1020.0
20260507110009 50 167 1.0 6.0 0.00 0.00 0.00 81 1020.6
20260507104736 50 0 0.0 3.0 0.00 0.00 0.00 82 1020.1
20260507104603 50 115 1.0 3.0 0.00 0.00 0.00 82 1020.8
20260507103837 50 0 0.0 2.0 0.00 0.00 0.00 82 1020.2
20260507103001 50 203 0.0 3.0 0.00 0.00 0.00 82 1020.8
20260507102936 51 0 0.0 3.0 0.00 0.00 0.00 82 1020.2
20260507101603 50 167 0.0 3.0 0.00 0.00 0.00 83 1020.7
20260507101137 51 157 1.0 3.0 0.00 0.00 0.00 82 1020.2
20260507100236 51 152 1.0 4.0 0.00 0.00 0.00 81 1020.1
20260507100004 50 186 2.0 4.0 0.00 0.00 0.00 81 1020.7
20260507095336 51 145 0.0 4.0 0.00 0.00 0.00 81 1020.2
20260507094612 50 166 0.0 3.0 0.00 0.00 0.00 81 1020.8
20260507094436 51 156 0.0 3.0 0.00 0.00 0.00 80 1020.2
20260507093537 51 174 1.0 4.0 0.00 0.00 0.00 80 1020.2
20260507091737 51 149 0.0 5.0 0.00 0.00 0.00 83 1020.3
20260507091636 51 153 1.0 5.0 0.00 0.00 0.00 83 1020.9
20260507090837 51 177 1.0 2.0 0.00 0.00 0.00 83 1020.4
20260507090002 51 181 0.0 3.0 0.00 0.00 0.00 83 1021.0
20260507085936 51 151 1.0 3.0 0.00 0.00 0.00 83 1020.5